User: anonymous   Login
Location: ????????
(54.9045°N, 39.1041°E)
Time: 19:17:50
(UTC+00:00)
Language:

SL-16 R/B - Orbit

View from above orbital plane
View from above orbital plane
View from above satellite
View from above satellite

Ground track
Ground track

The orbit data is extracted from the following two-line orbital elements,

1 31793U 07029B   24177.64614140 -.00000037  00000-0  56231-5 0  9991
2 31793  70.9770  39.7988 0002561 264.0767 157.8716 14.14640545877398
Epoch (UTC): 25 June 2024 15:30:26
Eccentricity: 0.0002561
inclination: 70.9770°
perigee height: 841 km
apogee height: 845 km
right ascension of ascending node: 39.7988°
argument of perigee: 264.0767°
revolutions per day: 14.14640545
mean anomaly at epoch: 157.8716°
orbit number at epoch: 87739

The dashed part of the orbit path shows where the satellite is in the earth's shadow,  

DLR